Location: Newark
(45.6000°N, 12.8833°E)
Time: 02:11:19
(UTC+00:00)

Envisat - Pass Details

Date: 28 October 2019
Orbit: 764 x 766 km, 98.1° (Epoch: 17 November)

Event Time Altitude Azimuth Distance (km) Brightness Sun altitude
Rises 17:31:48 0° 179° (S) 3,219 6.3 -16.3°
Reaches altitude 10° 17:34:09 10° 184° (S) 2,297 5.5 -16.7°
Maximum altitude 17:39:05 52° 260° (W) 952 3.9 -17.5°
Drops below altitude 10° 17:44:04 10° 337° (NNW) 2,313 5.8 -18.4°
Sets 17:46:26 0° 343° (NNW) 3,243 6.5 -18.8°
